DW6064 Weather Reports


time (UTC)temp
C
wind
direction
speed
KPH
gust
KPH
rain 1hr
cm
rain 24hr
cm
rain mn
cm
humidity
%
barometer
mb
20260508005533 15 279 1.6 6.4 0.00 0.00 0.00 41 1009.2
20260508005024 16 264 1.6 6.4 0.00 0.00 0.00 41 1009.1
20260508004540 16 263 3.2 6.4 0.00 0.00 0.00 40 1009.1
20260508004037 16 282 3.2 6.4 0.00 0.00 0.00 40 1009.0
20260508003531 16 289 3.2 8.0 0.00 0.00 0.00 40 1009.0
20260508003049 16 299 4.8 12.9 0.00 0.00 0.00 39 1008.9
20260508002540 16 259 6.4 14.5 0.00 0.00 0.00 38 1008.8
20260508002033 16 254 3.2 16.1 0.00 0.00 0.00 38 1008.8
20260508001525 16 279 9.7 17.7 0.00 0.00 0.00 38 1008.7
20260508001105 17 241 11.3 17.7 0.00 0.00 0.00 37 1008.7
20260508000541 17 269 8.0 16.1 0.00 0.00 0.00 38 1008.6
20260508000041 17 288 3.2 14.5 0.00 0.00 0.00 38 1008.5
20260507235533 17 310 6.4 12.9 0.00 0.00 0.00 38 1008.4
20260507235024 17 303 4.8 16.1 0.00 0.00 0.00 38 1008.4
20260507234542 17 280 8.0 16.1 0.00 0.00 0.00 35 1008.4
20260507234059 17 296 6.4 17.7 0.00 0.00 0.00 36 1008.4
20260507233526 17 319 11.3 17.7 0.00 0.00 0.00 36 1008.3
20260507233044 18 271 8.0 17.7 0.00 0.00 0.00 35 1008.4
20260507232534 18 261 8.0 16.1 0.00 0.00 0.00 35 1008.3
20260507232027 18 268 8.0 22.5 0.00 0.00 0.00 34 1008.2
20260507231604 18 275 11.3 24.1 0.00 0.00 0.00 33 1008.2
20260507231103 18 309 12.9 24.1 0.00 0.00 0.00 33 1008.1
20260507230534 18 326 11.3 35.4 0.00 0.00 0.00 34 1008.0
20260507230029 18 313 16.1 35.4 0.00 0.00 0.00 33 1008.0
20260507225605 18 321 8.0 24.1 0.00 0.00 0.00 34 1007.8
20260507225037 18 336 11.3 27.4 0.00 0.00 0.00 33 1007.8
20260507224531 18 284 16.1 27.4 0.00 0.00 0.00 31 1007.7
20260507224026 19 307 8.0 24.1 0.00 0.00 0.00 34 1007.7
20260507223542 19 318 9.7 24.1 0.00 0.00 0.00 33 1007.7
20260507223042 19 328 6.4 24.1 0.00 0.00 0.00 33 1007.6
20260507222538 20 319 11.3 24.1 0.00 0.00 0.00 34 1007.6
20260507222033 20 288 12.9 24.1 0.00 0.00 0.00 32 1007.5
20260507221526 20 355 11.3 22.5 0.00 0.00 0.00 32 1007.5
20260507221104 20 323 12.9 22.5 0.00 0.00 0.00 31 1007.5
20260507220600 20 334 12.9 22.5 0.00 0.00 0.00 32 1007.4
20260507220038 20 332 9.7 17.7 0.00 0.00 0.00 32 1007.4
20260507215530 21 325 6.4 19.3 0.00 0.03 0.00 29 1007.3
20260507215026 21 304 11.3 29.0 0.00 0.03 0.00 31 1007.3
20260507214542 21 328 17.7 29.0 0.00 0.03 0.00 30 1007.3
20260507214042 21 330 9.7 20.9 0.00 0.03 0.00 31 1007.2
20260507213534 22 299 9.7 19.3 0.00 0.03 0.00 29 1007.1
20260507213027 22 340 11.3 22.5 0.00 0.03 0.00 30 1007.0
20260507212543 22 342 6.4 24.1 0.00 0.03 0.00 30 1007.2
20260507212043 22 301 12.9 24.1 0.00 0.03 0.00 29 1007.1
20260507211536 22 303 6.4 20.9 0.00 0.03 0.00 29 1007.2
20260507211037 22 325 6.4 20.9 0.00 0.03 0.00 29 1007.3
20260507210555 22 300 9.7 29.0 0.00 0.03 0.00 31 1007.1
20260507210027 22 239 14.5 29.0 0.00 0.03 0.00 29 1007.1
20260507205542 22 282 9.7 19.3 0.00 0.03 0.00 28 1007.1
20260507205041 22 241 9.7 17.7 0.00 0.03 0.00 29 1007.1
20260507204531 22 329 8.0 25.7 0.00 0.03 0.00 29 1007.4
20260507204025 22 323 12.9 25.7 0.00 0.03 0.00 28 1007.4
20260507203543 22 321 11.3 17.7 0.00 0.03 0.00 30 1007.4
20260507203037 22 318 3.2 22.5 0.00 0.03 0.00 30 1007.4
20260507202528 22 332 14.5 22.5 0.00 0.03 0.00 30 1007.4
20260507202047 22 286 1.6 16.1 0.00 0.03 0.00 31 1007.4
20260507201545 22 275 8.0 16.1 0.00 0.03 0.00 29 1007.4
20260507201043 22 252 9.7 16.1 0.00 0.03 0.00 30 1007.5
20260507200542 22 190 4.8 12.9 0.00 0.03 0.00 31 1007.5
20260507200037 22 280 6.4 14.5 0.00 0.03 0.00 32 1007.5
20260507195530 21 319 4.8 9.7 0.00 0.03 0.00 31 1007.6
20260507195025 21 296 3.2 11.3 0.00 0.03 0.00 31 1007.5
20260507194604 22 236 1.6 11.3 0.00 0.03 0.00 29 1007.7
20260507194036 22 342 6.4 16.1 0.00 0.03 0.00 33 1007.8
20260507193530 22 261 6.4 20.9 0.00 0.03 0.00 33 1007.9
20260507193026 22 257 6.4 22.5 0.00 0.03 0.00 31 1008.0
20260507192542 22 274 11.3 22.5 0.00 0.03 0.00 32 1008.1
20260507192036 22 265 8.0 19.3 0.00 0.03 0.00 35 1008.2
20260507191530 22 248 6.4 19.3 0.00 0.03 0.00 34 1008.1
20260507191106 21 298 8.0 19.3 0.00 0.03 0.00 32 1008.3
20260507190538 21 245 11.3 19.3 0.00 0.03 0.00 34 1008.3
20260507190041 21 360 6.4 19.3 0.00 0.03 0.00 29 1008.3
20260507185538 21 32 9.7 19.3 0.00 0.03 0.00 32 1008.4
20260507185035 21 167 6.4 16.1 0.00 0.03 0.00 29 1008.4
20260507184529 21 277 6.4 22.5 0.00 0.03 0.00 35 1008.5
20260507184032 21 323 11.3 22.5 0.00 0.03 0.00 35 1008.6
20260507183526 21 281 4.8 16.1 0.00 0.03 0.00 32 1008.6
20260507183043 21 240 4.8 8.0 0.00 0.03 0.00 35 1008.6
20260507182601 21 294 1.6 14.5 0.00 0.03 0.00 36 1008.6
20260507182036 21 224 3.2 14.5 0.00 0.03 0.00 32 1008.7
20260507181530 21 350 8.0 12.9 0.00 0.03 0.00 36 1008.8
20260507181027 20 338 4.8 8.0 0.00 0.03 0.00 34 1008.8
20260507180540 20 230 1.6 11.3 0.00 0.03 0.00 38 1008.9
20260507180033 20 252 3.2 14.5 0.00 0.03 0.00 36 1009.0
20260507175525 20 275 8.0 14.5 0.00 0.03 0.00 34 1009.0
20260507175047 20 265 3.2 11.3 0.00 0.03 0.00 36 1009.1
20260507174541 19 297 4.8 11.3 0.00 0.03 0.00 32 1009.2
20260507174042 19 244 6.4 11.3 0.00 0.03 0.00 33 1009.3
20260507173600 20 284 1.6 11.3 0.00 0.03 0.00 34 1009.3
20260507173035 20 144 3.2 11.3 0.00 0.03 0.00 35 1009.4
20260507172525 20 76 3.2 16.1 0.00 0.03 0.00 31 1009.6
20260507172038 19 340 1.6 16.1 0.00 0.03 0.00 34 1009.6
20260507171542 19 360 8.0 12.9 0.00 0.03 0.00 36 1009.7
20260507171041 19 54 1.6 12.9 0.00 0.03 0.00 33 1009.9
20260507170534 19 294 4.8 14.5 0.00 0.03 0.00 35 1009.9
20260507170029 19 342 4.8 17.7 0.00 0.03 0.00 37 1010.0
20260507165544 19 273 4.8 19.3 0.00 0.03 0.00 37 1010.1
20260507165031 19 317 12.9 19.3 0.00 0.03 0.00 35 1010.3
20260507164537 18 65 1.6 16.1 0.00 0.03 0.00 34 1010.3
20260507164103 19 13 8.0 19.3 0.00 0.03 0.00 39 1010.4
20260507163540 18 347 8.0 19.3 0.00 0.03 0.00 39 1010.4
20260507163040 18 5 8.0 20.9 0.00 0.03 0.00 34 1010.4
20260507162539 19 340 11.3 20.9 0.00 0.03 0.00 39 1010.5
20260507162040 18 349 4.8 16.1 0.00 0.03 0.00 39 1010.6
20260507161532 18 311 8.0 20.9 0.00 0.03 0.00 35 1010.6
20260507161026 18 321 9.7 20.9 0.00 0.03 0.00 39 1010.6
20260507160538 18 246 11.3 20.9 0.00 0.03 0.00 35 1010.7
20260507160039 18 250 8.0 16.1 0.00 0.03 0.00 37 1010.7
20260507155532 18 57 4.8 19.3 0.00 0.03 0.00 38 1010.8
20260507155053 17 295 3.2 19.3 0.00 0.03 0.00 37 1010.9
20260507154524 18 284 8.0 19.3 0.00 0.03 0.00 34 1010.9
20260507154104 17 321 9.7 16.1 0.00 0.03 0.00 39 1010.9
20260507153600 17 308 8.0 16.1 0.00 0.03 0.00 40 1011.0
20260507153039 17 346 8.0 19.3 0.00 0.03 0.00 38 1011.0
20260507152534 17 290 11.3 20.9 0.00 0.03 0.00 40 1011.0
20260507152033 17 302 6.4 27.4 0.00 0.03 0.00 39 1011.2
20260507151526 17 306 16.1 27.4 0.00 0.03 0.00 39 1011.3
20260507151103 16 331 11.3 20.9 0.00 0.03 0.00 43 1011.4
20260507150541 16 334 6.4 17.7 0.00 0.03 0.00 46 1011.5
20260507150040 16 22 1.6 14.5 0.00 0.03 0.00 44 1011.5
20260507145534 16 10 3.2 14.5 0.00 0.23 0.00 42 1011.7
20260507145030 16 5 4.8 14.5 0.00 0.23 0.00 47 1011.7
20260507144605 16 20 3.2 19.3 0.00 0.23 0.00 41 1011.8
20260507144045 16 311 12.9 20.9 0.00 0.23 0.00 46 1011.9
20260507143543 15 298 8.0 22.5 0.00 0.23 0.00 43 1012.0
20260507143043 15 329 6.4 22.5 0.00 0.23 0.00 46 1012.0
20260507142541 15 20 3.2 9.7 0.00 0.23 0.00 42 1012.1
20260507142042 15 343 3.2 9.7 0.00 0.23 0.00 45 1012.1
20260507141537 15 5 0.0 9.7 0.00 0.23 0.00 43 1012.0
20260507141032 14 360 3.2 9.7 0.00 0.23 0.00 45 1012.2
20260507140552 14 342 3.2 6.4 0.00 0.23 0.00 45 1012.2
20260507140027 13 257 1.6 6.4 0.00 0.23 0.00 46 1012.3
20260507135547 13 278 4.8 8.0 0.00 0.43 0.00 43 1012.4
20260507135046 13 286 1.6 8.0 0.00 0.43 0.00 47 1012.6
20260507134538 13 5 3.2 8.0 0.00 0.43 0.00 48 1012.6
20260507134041 13 37 3.2 8.0 0.00 0.43 0.00 47 1012.6
20260507133534 12 5 3.2 8.0 0.00 0.43 0.00 48 1012.7
20260507133035 12 23 3.2 6.4 0.00 0.43 0.00 45 1012.7
20260507132527 12 309 3.2 6.4 0.00 0.43 0.00 49 1012.7
20260507132035 12 297 1.6 6.4 0.00 0.43 0.00 49 1012.8
20260507131528 12 298 1.6 4.8 0.00 0.43 0.00 49 1012.7
20260507131049 12 342 1.6 4.8 0.00 0.43 0.00 50 1012.8
20260507130539 12 342 1.6 6.4 0.00 0.43 0.00 52 1012.7
20260507130059 12 342 1.6 6.4 0.00 0.43 0.00 53 1012.7
20260507125558 12 14 4.8 9.7 0.00 0.48 0.00 52 1012.7
20260507125033 12 329 4.8 9.7 0.00 0.48 0.00 52 1012.7
20260507124525 12 324 3.2 9.7 0.00 0.48 0.00 54 1012.6
20260507124047 11 348 4.8 9.7 0.00 0.48 0.00 56 1012.6
20260507123541 11 333 6.4 9.7 0.00 0.48 0.00 54 1012.7
20260507123042 11 334 8.0 9.7 0.00 0.48 0.00 53 1012.6
20260507122541 11 326 6.4 9.7 0.00 0.48 0.00 54 1012.7
20260507122038 11 323 3.2 9.7 0.00 0.48 0.00 57 1012.7
20260507121531 11 302 3.2 9.7 0.00 0.48 0.00 56 1012.7
20260507121027 11 288 4.8 9.7 0.00 0.48 0.00 58 1012.6
20260507120543 11 300 3.2 8.0 0.00 0.48 0.00 58 1012.6
20260507120042 11 303 3.2 6.4 0.00 0.48 0.00 60 1012.6
20260507115603 11 321 1.6 6.4 0.00 0.53 0.00 59 1012.5
20260507115101 11 321 3.2 8.0 0.00 0.53 0.00 59 1012.5
20260507114531 11 307 3.2 8.0 0.00 0.53 0.00 58 1012.6
20260507114026 11 323 4.8 6.4 0.00 0.53 0.00 59 1012.6
20260507113540 11 305 3.2 6.4 0.00 0.53 0.00 59 1012.6
20260507113059 11 304 1.6 8.0 0.00 0.53 0.00 60 1012.5
20260507112557 11 327 4.8 8.0 0.00 0.53 0.00 59 1012.4
20260507112035 11 287 3.2 4.8 0.00 0.53 0.00 60 1012.4
20260507111525 10 288 1.6 6.4 0.00 0.53 0.00 60 1012.4
20260507111044 10 288 1.6 8.0 0.00 0.53 0.00 60 1012.3
20260507110541 10 274 4.8 8.0 0.00 0.53 0.00 59 1012.2
20260507110037 10 290 3.2 4.8 0.00 0.53 0.00 61 1012.0
20260507105529 10 275 3.2 4.8 0.00 0.56 0.00 59 1012.1
20260507105025 10 297 3.2 4.8 0.00 0.56 0.00 59 1012.0
20260507104543 10 297 1.6 4.8 0.00 0.56 0.00 58 1012.0
20260507104034 10 297 1.6 6.4 0.00 0.56 0.00 58 1011.9
20260507103530 11 309 3.2 6.4 0.00 0.56 0.00 58 1011.9
20260507103025 11 297 0.0 3.2 0.00 0.56 0.00 59 1011.8
20260507102538 11 297 1.6 3.2 0.00 0.56 0.00 59 1011.7
20260507102041 11 297 0.0 4.8 0.00 0.56 0.00 58 1011.7
20260507101558 11 297 1.6 4.8 0.00 0.56 0.00 57 1011.6
20260507101033 11 289 1.6 6.4 0.00 0.56 0.00 57 1011.5
20260507100525 11 302 1.6 6.4 0.00 0.56 0.00 56 1011.5
20260507100044 11 290 3.2 4.8 0.00 0.56 0.00 57 1011.6
20260507095543 11 271 1.6 4.8 0.00 0.56 0.00 57 1011.5
20260507095104 11 316 1.6 9.7 0.00 0.56 0.00 56 1011.4
20260507094540 11 316 3.2 9.7 0.00 0.56 0.00 55 1011.4
20260507094059 11 316 3.2 9.7 0.00 0.56 0.00 54 1011.4
20260507093534 11 335 6.4 12.9 0.00 0.56 0.00 54 1011.5
20260507093026 11 316 8.0 12.9 0.00 0.56 0.00 54 1011.5
20260507092543 11 325 3.2 6.4 0.00 0.56 0.00 56 1011.4
20260507092034 11 315 1.6 6.4 0.00 0.56 0.00 56 1011.2
20260507091527 11 325 3.2 6.4 0.00 0.56 0.00 56 1011.2
20260507091105 11 306 1.6 6.4 0.00 0.56 0.00 56 1011.3
20260507090541 11 290 0.0 3.2 0.00 0.56 0.00 57 1011.2
20260507090043 11 290 0.0 4.8 0.00 0.56 0.00 57 1011.1
20260507085536 11 327 1.6 4.8 0.00 0.56 0.00 57 1011.0
20260507085030 11 327 3.2 8.0 0.00 0.56 0.00 56 1011.0
20260507084525 11 325 1.6 8.0 0.00 0.56 0.00 55 1011.0
20260507084044 11 322 3.2 4.8 0.00 0.56 0.00 56 1010.9
20260507083602 11 322 1.6 4.8 0.00 0.56 0.00 55 1011.0
20260507083040 11 347 1.6 4.8 0.00 0.56 0.00 54 1010.8
20260507082533 11 347 0.0 6.4 0.00 0.56 0.00 54 1010.9
20260507082028 11 347 0.0 6.4 0.00 0.56 0.00 54 1010.8
20260507081525 11 12 1.6 8.0 0.00 0.56 0.00 53 1011.0
20260507081043 11 5 3.2 16.1 0.00 0.56 0.00 53 1010.9
20260507080541 11 23 6.4 16.1 0.00 0.56 0.00 53 1011.0
20260507080035 11 344 1.6 8.0 0.00 0.56 0.00 55 1011.0
20260507075530 11 341 3.2 8.0 0.00 0.56 0.00 55 1011.1
20260507075027 11 11 3.2 9.7 0.00 0.56 0.00 56 1010.9
20260507074545 11 355 3.2 9.7 0.00 0.56 0.00 55 1011.0
20260507074042 11 351 3.2 6.4 0.00 0.56 0.00 55 1011.1
20260507073535 11 327 3.2 8.0 0.00 0.56 0.00 55 1011.0
20260507073030 11 345 1.6 9.7 0.00 0.56 0.00 55 1011.0
20260507072545 11 5 3.2 9.7 0.00 0.56 0.00 54 1011.0
20260507072044 12 12 3.2 12.9 0.00 0.56 0.00 55 1011.0
20260507071541 12 9 1.6 12.9 0.00 0.56 0.00 54 1011.0
20260507071041 12 355 4.8 14.5 0.00 0.56 0.00 55 1010.8
20260507070533 12 360 6.4 14.5 0.00 0.56 0.00 55 1011.0
20260507070026 12 360 6.4 14.5 0.00 0.56 0.00 56 1011.1
20260507065542 12 5 6.4 19.3 0.00 0.56 0.00 57 1011.2
20260507065041 12 325 6.4 19.3 0.00 0.56 0.00 58 1011.0
20260507064538 12 346 8.0 19.3 0.00 0.56 0.00 60 1011.0
20260507064033 12 14 8.0 19.3 0.00 0.56 0.00 62 1010.9
20260507063527 12 308 9.7 19.3 0.00 0.56 0.00 64 1010.9
20260507063044 12 306 6.4 16.1 0.00 0.56 0.00 66 1010.9
20260507062538 12 5 6.4 19.3 0.00 0.56 0.00 66 1011.0
20260507062054 12 315 9.7 19.3 0.00 0.56 0.00 67 1011.1
20260507061524 12 355 6.4 16.1 0.00 0.56 0.00 69 1011.1
20260507061044 12 325 4.8 16.1 0.00 0.56 0.00 70 1011.1
20260507060601 12 326 6.4 16.1 0.00 0.56 0.00 69 1011.1
20260507060036 12 355 6.4 17.7 0.00 0.56 0.00 70 1011.0
20260507055554 12 350 8.0 17.7 0.00 0.56 0.00 70 1011.0
20260507055031 12 348 8.0 16.1 0.00 0.56 0.00 70 1011.0
20260507054544 12 348 6.4 16.1 0.00 0.56 0.00 70 1010.9
20260507054044 12 336 6.4 14.5 0.00 0.56 0.00 70 1010.7
20260507053543 12 350 4.8 14.5 0.00 0.56 0.00 70 1010.8
20260507053040 12 350 4.8 14.5 0.00 0.56 0.00 70 1010.9
20260507052532 12 34 4.8 12.9 0.00 0.56 0.00 70 1010.9
20260507052025 12 13 6.4 12.9 0.00 0.56 0.00 70 1010.9
20260507051535 12 355 6.4 9.7 0.00 0.56 0.00 69 1010.8
20260507051028 12 5 3.2 12.9 0.00 0.56 0.00 69 1010.9
20260507050540 12 5 6.4 14.5 0.00 0.56 0.00 68 1010.8
20260507050035 12 18 4.8 17.7 0.00 0.56 0.00 68 1010.8
20260507045527 13 360 9.7 17.7 0.00 0.56 0.00 67 1010.9
20260507045047 13 15 8.0 22.5 0.00 0.56 0.00 68 1010.9
20260507044605 13 19 6.4 22.5 0.00 0.56 0.00 67 1011.0
20260507044041 13 342 9.7 19.3 0.00 0.56 0.00 67 1010.9
20260507043559 13 355 6.4 19.3 0.00 0.56 0.00 67 1010.8
20260507043032 13 5 9.7 17.7 0.00 0.56 0.00 67 1010.8
20260507042525 13 350 8.0 17.7 0.00 0.56 0.00 68 1010.9
20260507042039 13 326 6.4 19.3 0.00 0.56 0.00 68 1011.0
20260507041556 13 342 8.0 19.3 0.00 0.56 0.00 68 1011.1
20260507041054 13 9 8.0 20.9 0.00 0.56 0.00 69 1011.0
20260507040524 13 355 9.7 24.1 0.00 0.56 0.00 69 1011.0
20260507040044 13 351 16.1 24.1 0.00 0.56 0.00 69 1011.2
20260507035541 13 333 12.9 22.5 0.00 0.56 0.56 70 1011.1
20260507035040 13 340 9.7 22.5 0.00 0.56 0.56 70 1010.9
20260507034537 13 319 8.0 29.0 0.00 0.56 0.56 70 1010.8
20260507034033 13 337 14.5 29.0 0.00 0.56 0.56 70 1010.8
20260507033550 13 345 14.5 27.4 0.00 0.56 0.56 71 1010.7
20260507033049 13 311 12.9 24.1 0.00 0.56 0.56 71 1010.8
20260507032542 13 327 14.5 24.1 0.00 0.56 0.56 72 1010.8
20260507032036 13 327 14.5 22.5 0.00 0.56 0.56 73 1010.9
20260507031528 13 348 11.3 16.1 0.00 0.56 0.56 73 1011.0
20260507031045 13 343 8.0 14.5 0.00 0.56 0.56 74 1011.2
20260507030539 13 344 3.2 14.5 0.00 0.56 0.56 75 1010.9
20260507030034 13 321 8.0 12.9 0.00 0.56 0.56 76 1011.2
20260507025525 13 347 4.8 12.9 0.00 0.56 0.56 76 1010.9
20260507025105 13 310 8.0 12.9 0.00 0.56 0.56 76 1010.9
20260507024539 13 317 6.4 11.3 0.00 0.56 0.56 76 1011.0
20260507024032 13 281 3.2 17.7 0.00 0.56 0.56 76 1011.0
20260507023525 13 272 6.4 17.7 0.00 0.56 0.56 76 1010.3
20260507023037 13 13 6.4 17.7 0.00 0.56 0.56 76 1010.6
20260507022529 13 338 6.4 25.7 0.00 0.56 0.56 76 1010.8
20260507022048 13 295 6.4 25.7 0.00 0.56 0.56 76 1010.9
20260507021544 13 355 11.3 25.7 0.00 0.56 0.56 76 1011.0
20260507021041 13 324 16.1 25.7 0.00 0.56 0.56 76 1010.8
20260507020541 13 291 11.3 25.7 0.00 0.56 0.56 76 1010.9
20260507020040 13 321 17.7 29.0 0.00 0.56 0.56 76 1010.5
20260507015600 14 307 20.9 29.0 0.00 0.56 0.56 76 1010.4
20260507015057 14 323 16.1 27.4 0.00 0.56 0.56 76 1010.4
20260507014533 14 331 14.5 22.5 0.00 0.56 0.56 77 1010.4
20260507014024 14 299 12.9 27.4 0.00 0.56 0.56 77 1010.3
20260507013538 14 306 12.9 27.4 0.00 0.56 0.56 76 1010.5
20260507013041 14 315 9.7 19.3 0.00 0.56 0.56 77 1010.5
20260507012533 14 304 4.8 12.9 0.00 0.56 0.56 77 1010.4
20260507012026 14 290 6.4 14.5 0.00 0.56 0.56 76 1010.6
20260507011544 14 288 9.7 14.5 0.00 0.56 0.56 76 1010.6
20260507011043 15 300 6.4 16.1 0.00 0.56 0.56 76 1010.5
20260507010540 15 279 4.8 17.7 0.00 0.56 0.56 76 1010.5
20260507010034 15 299 9.7 17.7 0.00 0.56 0.56 76 1010.5